Location: Bruderhein
(53.8035°N, 112.9265°W)
Time: 13:09:54
(UTC+00:00)

deb Delta 139 - Pass Details

Date: 04 December 2023
Orbit: 731 x 794 km, 98.6° (Epoch: 01 March)

Event Time Altitude Azimuth Distance (km) Brightness Sun altitude
Rises 14:38:09 0° 16° (NNE) 3,205 ? -7.3°
Maximum altitude 14:45:27 72° 104° (ESE) 778 ? -6.4°
Drops below altitude 10° 14:50:21 10° 189° (S) 2,230 ? -5.7°
Sets 14:52:37 0° 192° (SSW) 3,146 ? -5.4°
